When you browse on this site, cookies collect data to enhance your experience and personalize the content and advertising you see.
Visit our Privacy Policy to learn more. By continuing to use the site, you agree to this use of cookies and data.
  • In Portugal
  • List of Countries
  • For 7 days
  • Water Temperature
  • Satellite Maps
  • Weather Map
  • Weather Widgets
  • user-avatar
    Login

    Hourly Weather Kobe

    Today, 10 December, Monday

    Time Temperature Precipitation Wind Pressure Humidity
    00:00 +3°C° 0 mm 3 mps 766 mmHg 73%
    01:00 +3°C° 0 mm 3 mps 766 mmHg 72%
    02:00 +3°C° 0 mm 3 mps 766 mmHg 71%
    03:00 +3°C° 0 mm 3 mps 766 mmHg 70%
    04:00 +3°C° 0 mm 3 mps 766 mmHg 71%
    05:00 +3°C° 0 mm 3 mps 766 mmHg 71%
    06:00 +3°C° 0 mm 3 mps 766 mmHg 72%
    07:00 +4°C° 0 mm 3 mps 766 mmHg 69%
    08:00 +5°C° 0 mm 3 mps 767 mmHg 66%
    09:00 +5°C° 0 mm 3 mps 767 mmHg 62%
    10:00 +7°C° 0 mm 3 mps 767 mmHg 59%
    11:00 +8°C° 0 mm 3 mps 767 mmHg 55%
    12:00 +9°C° 0 mm 3 mps 767 mmHg 51%
    13:00 +9°C° 0 mm 3 mps 766 mmHg 51%
    14:00 +8°C° 0 mm 4 mps 766 mmHg 51%
    15:00 +9°C° 0 mm 3 mps 766 mmHg 54%
    16:00 +8°C° 0 mm 3 mps 766 mmHg 58%
    17:00 +7°C° 0 mm 3 mps 766 mmHg 62%
    18:00 +5°C° 0 mm 3 mps 766 mmHg 66%
    19:00 +5°C° 0 mm 3 mps 767 mmHg 67%
    20:00 +4°C° 0 mm 3 mps 767 mmHg 68%
    21:00 +4°C° 0 mm 3 mps 767 mmHg 68%
    22:00 +4°C° 0 mm 3 mps 767 mmHg 69%
    23:00 +4°C° 0 mm 3 mps 767 mmHg 70%

    Tomorrow, 11 December, Tuesday

    Time Temperature Precipitation Wind Pressure Humidity
    00:00 +4°C° 0 mm 3 mps 767 mmHg 70%
    01:00 +4°C° 0 mm 3 mps 766 mmHg 71%
    02:00 +3°C° 0 mm 4 mps 766 mmHg 71%
    03:00 +3°C° 0 mm 4 mps 766 mmHg 71%
    04:00 +3°C° 0 mm 3 mps 766 mmHg 70%
    05:00 +3°C° 0 mm 3 mps 766 mmHg 69%
    06:00 +3°C° 0 mm 3 mps 766 mmHg 67%
    07:00 +4°C° 0 mm 3 mps 766 mmHg 63%
    08:00 +7°C° 0 mm 3 mps 766 mmHg 59%
    09:00 +8°C° 0 mm 3 mps 766 mmHg 55%
    10:00 +9°C° 0 mm 3 mps 765 mmHg 50%
    11:00 +11°C° 0 mm 3 mps 764 mmHg 45%
    12:00 +12°C° 0 mm 3 mps 764 mmHg 40%
    13:00 +14°C° 0 mm 2 mps 763 mmHg 40%
    14:00 +14°C° 0 mm 2 mps 762 mmHg 39%
    15:00 +14°C° 0 mm 2 mps 762 mmHg 39%
    16:00 +14°C° 0 mm 2 mps 762 mmHg 45%
    17:00 +13°C° 0 mm 2 mps 761 mmHg 52%
    18:00 +11°C° 0 mm 3 mps 761 mmHg 58%
    19:00 +10°C° 0.8 mm 3 mps 761 mmHg 65%
    20:00 +10°C° 0.8 mm 3 mps 761 mmHg 73%
    21:00 +10°C° 0.8 mm 3 mps 761 mmHg 81%
    22:00 +10°C° 1.4 mm 3 mps 760 mmHg 84%
    23:00 +10°C° 1.4 mm 3 mps 759 mmHg 87%

    Day after tomorrow, 12 December, Wednesday

    Time Temperature Precipitation Wind Pressure Humidity
    00:00 +10°C° 1.4 mm 4 mps 759 mmHg 90%
    01:00 +10°C° 1.8 mm 3 mps 758 mmHg 91%
    02:00 +10°C° 1.8 mm 3 mps 758 mmHg 91%
    03:00 +10°C° 1.8 mm 3 mps 757 mmHg 92%
    04:00 +10°C° 0.9 mm 3 mps 757 mmHg 92%
    05:00 +10°C° 0.9 mm 3 mps 756 mmHg 92%
    06:00 +10°C° 0.9 mm 4 mps 756 mmHg 92%
    07:00 +10°C° 0.1 mm 4 mps 756 mmHg 89%
    08:00 +10°C° 0.1 mm 4 mps 756 mmHg 87%
    09:00 +9°C° 0.1 mm 5 mps 757 mmHg 85%
    10:00 +10°C° 0 mm 5 mps 757 mmHg 82%
    11:00 +10°C° 0 mm 6 mps 757 mmHg 79%
    12:00 +11°C° 0 mm 6 mps 757 mmHg 76%
    13:00 +10°C° 0.1 mm 7 mps 757 mmHg 74%
    14:00 +10°C° 0.1 mm 7 mps 757 mmHg 73%
    15:00 +10°C° 0.1 mm 8 mps 757 mmHg 72%
    16:00 +9°C° 0.1 mm 8 mps 757 mmHg 72%
    17:00 +7°C° 0.1 mm 8 mps 758 mmHg 71%
    18:00 +7°C° 0.1 mm 8 mps 759 mmHg 71%
    19:00 +6°C° 0 mm 7 mps 759 mmHg 72%
    20:00 +6°C° 0 mm 7 mps 759 mmHg 72%
    21:00 +5°C° 0 mm 6 mps 760 mmHg 72%
    22:00 +5°C° 0 mm 6 mps 760 mmHg 74%
    23:00 +6°C° 0 mm 5 mps 760 mmHg 76%

    13 December, Thursday

    Time Temperature Precipitation Wind Pressure Humidity
    00:00 +6°C° 0 mm 5 mps 761 mmHg 78%
    01:00 +6°C° 0.1 mm 5 mps 761 mmHg 79%
    02:00 +6°C° 0.1 mm 4 mps 761 mmHg 80%
    03:00 +5°C° 0.1 mm 4 mps 761 mmHg 81%
    04:00 +5°C° 0.1 mm 4 mps 761 mmHg 81%
    05:00 +5°C° 0.1 mm 5 mps 761 mmHg 81%
    06:00 +5°C° 0.1 mm 5 mps 761 mmHg 81%
    07:00 +6°C° 0 mm 5 mps 762 mmHg 78%
    08:00 +7°C° 0 mm 6 mps 762 mmHg 75%
    09:00 +7°C° 0 mm 6 mps 762 mmHg 71%
    10:00 +8°C° 0 mm 7 mps 762 mmHg 66%
    11:00 +9°C° 0 mm 7 mps 762 mmHg 60%
    12:00 +10°C° 0 mm 8 mps 761 mmHg 54%
    13:00 +10°C° 0 mm 8 mps 761 mmHg 55%
    14:00 +10°C° 0 mm 8 mps 761 mmHg 55%
    15:00 +9°C° 0 mm 8 mps 761 mmHg 55%
    16:00 +9°C° 0 mm 8 mps 761 mmHg 57%
    17:00 +7°C° 0 mm 8 mps 761 mmHg 60%
    18:00 +6°C° 0 mm 8 mps 762 mmHg 62%
    19:00 +6°C° 0 mm 8 mps 762 mmHg 62%
    20:00 +5°C° 0 mm 7 mps 763 mmHg 62%
    21:00 +5°C° 0 mm 7 mps 763 mmHg 62%
    22:00 +5°C° 0 mm 7 mps 763 mmHg 64%
    23:00 +5°C° 0 mm 7 mps 763 mmHg 65%

    14 December, Friday

    Time Temperature Precipitation Wind Pressure Humidity
    00:00 +5°C° 0 mm 8 mps 763 mmHg 66%
    01:00 +5°C° 0.1 mm 7 mps 763 mmHg 66%
    02:00 +5°C° 0.1 mm 7 mps 763 mmHg 66%
    03:00 +5°C° 0.1 mm 7 mps 763 mmHg 66%
    04:00 +5°C° 0 mm 7 mps 763 mmHg 68%
    05:00 +4°C° 0 mm 6 mps 764 mmHg 70%
    06:00 +4°C° 0 mm 6 mps 764 mmHg 73%
    07:00 +4°C° 0 mm 6 mps 764 mmHg 70%
    08:00 +4°C° 0 mm 6 mps 765 mmHg 67%
    09:00 +6°C° 0 mm 5 mps 765 mmHg 65%
    10:00 +5°C° 0 mm 6 mps 765 mmHg 61%
    11:00 +7°C° 0 mm 6 mps 765 mmHg 57%
    12:00 +7°C° 0 mm 6 mps 765 mmHg 53%
    13:00 +7°C° 0 mm 6 mps 765 mmHg 54%
    14:00 +7°C° 0 mm 6 mps 765 mmHg 54%
    15:00 +7°C° 0 mm 6 mps 765 mmHg 54%
    16:00 +5°C° 0 mm 6 mps 765 mmHg 59%
    17:00 +4°C° 0 mm 6 mps 765 mmHg 63%
    18:00 +3°C° 0 mm 6 mps 766 mmHg 68%
    19:00 +2°C° 0 mm 5 mps 766 mmHg 69%
    20:00 +2°C° 0 mm 5 mps 767 mmHg 71%
    21:00 +2°C° 0 mm 5 mps 767 mmHg 72%
    22:00 +2°C° 0 mm 5 mps 767 mmHg 73%
    23:00 +2°C° 0 mm 5 mps 767 mmHg 73%

    15 December, Saturday

    Time Temperature Precipitation Wind Pressure Humidity
    00:00 +1°C° 0 mm 4 mps 767 mmHg 73%
    01:00 +1°C° 0 mm 4 mps 767 mmHg 74%
    02:00 +1°C° 0 mm 4 mps 767 mmHg 74%
    03:00 +1°C° 0 mm 4 mps 767 mmHg 74%
    04:00 +1°C° 0 mm 4 mps 767 mmHg 75%
    05:00 +1°C° 0 mm 4 mps 767 mmHg 75%
    06:00 +1°C° 0 mm 4 mps 767 mmHg 75%
    07:00 +3°C° 0 mm 4 mps 767 mmHg 70%
    08:00 +4°C° 0 mm 4 mps 767 mmHg 65%
    09:00 +5°C° 0 mm 4 mps 767 mmHg 60%
    10:00 +6°C° 0 mm 4 mps 767 mmHg 56%
    11:00 +7°C° 0 mm 4 mps 766 mmHg 52%
    12:00 +9°C° 0 mm 3 mps 766 mmHg 48%
    13:00 +9°C° 0 mm 3 mps 765 mmHg 48%
    14:00 +9°C° 0 mm 3 mps 765 mmHg 47%
    15:00 +9°C° 0 mm 3 mps 764 mmHg 47%
    16:00 +8°C° 0 mm 3 mps 764 mmHg 52%
    17:00 +7°C° 0 mm 3 mps 765 mmHg 56%
    18:00 +5°C° 0 mm 3 mps 765 mmHg 61%
    19:00 +4°C° 0 mm 3 mps 765 mmHg 60%
    20:00 +5°C° 0 mm 2 mps 765 mmHg 59%
    21:00 +5°C° 0 mm 2 mps 765 mmHg 58%
    22:00 +5°C° 0 mm 2 mps 764 mmHg 57%
    23:00 +5°C° 0 mm 2 mps 764 mmHg 56%
    Show more